Home   Weather   Aalborg   Past weeks

Flag for Denmark Past Weather in Aalborg, Denmark — Yesterday and Last 2 Weeks

Now
46 °F

Light rain. Partly sunny.


Feels Like: 42 °F
Forecast: 38 / 45 °F
Wind: 9 mph from South

Location: Aalborg Airport

Current Time: Feb 27, 2017 at 2:49:54 pm

Latest Report: Feb 27, 2017 at 2:20 pm


Visibility: 5 mi

Pressure: 29.36 "Hg

Humidity: 93%

Dew Point: 45 °F

Location of AalborgLocation

Past Weather in Aalborg — Graph

°F

Aalborg Temperature Yesterday

Maximum temperature yesterday: 46 °F (at 1:20 pm)
Minimum temperature yesterday: 41 °F (at 12:20 am)
Average temperature yesterday: 44 °F

High & Low Weather Summary for the Past Weeks

 TemperatureHumidityPressure
High48 °F (Feb 20, 5:07 pm)100% (Feb 13, 10:50 pm)30.74 "Hg (Feb 13, 10:50 pm)
Low19 °F (Feb 14, 3:20 am)42% (Feb 24, 1:50 pm)28.91 "Hg (Feb 22, 7:20 pm)
Average38 °F88%29.85 "Hg
* Reported Feb 12 1:20 pm — Feb 27 1:20 pm, Aalborg, Weather by CustomWeather, © 2017

Note: Actual official high and low records may vary slightly from our data, if they occured in-between our weather recording intervals... More about our weather records

Advertising

Aalborg Weather History for the Previous 24 Hours

Scroll right to see more
 ConditionsComfort  
Time TempWeatherWind HumidityBarometerVisibility
1:20 pm
Mon, Feb 27
46 °FRain. Partly sunny.10 mph93%29.36 "Hg4 mi
12:50 pm46 °FLight rain. Partly sunny.10 mph93%29.39 "Hg4 mi
12:20 pm46 °FLight rain. Partly sunny.12 mph93%29.39 "Hg4 mi
11:50 am46 °FPartly sunny.10 mph93%29.39 "Hg5 mi
11:20 am46 °FPartly sunny.13 mph93%29.42 "Hg5 mi
10:50 am46 °FPartly sunny.13 mph93%29.42 "Hg5 mi
10:20 am46 °FPartly sunny.14 mph93%29.42 "Hg5 mi
9:50 am46 °FPartly sunny.14 mph87%29.42 "HgN/A
9:20 am46 °FPartly sunny.13 mph93%29.42 "Hg5 mi
8:50 am46 °FPartly sunny.14 mph93%29.42 "Hg5 mi
8:20 am46 °FPartly sunny.17 mph87%29.42 "Hg5 mi
7:50 am46 °FPartly sunny.16 mph93%29.42 "HgN/A
7:20 am46 °FBroken clouds.15 mph93%29.42 "Hg4 mi
6:50 am46 °FPartly cloudy.16 mph93%29.42 "Hg4 mi
6:20 am46 °FPassing clouds.16 mph93%29.42 "Hg4 mi
5:51 am46 °FPassing clouds.15 mph93%29.42 "Hg4 mi
5:37 am46 °FPassing clouds.14 mph93%29.42 "HgN/A
4:50 am46 °FPassing clouds.14 mph93%29.42 "HgN/A
4:20 am46 °FLight rain. Fog.14 mph93%29.42 "Hg3 mi
3:50 am46 °FLight rain. Passing clouds.14 mph93%29.42 "Hg4 mi
3:20 am46 °FLight rain. Partly cloudy.15 mph93%29.45 "Hg2 mi
2:50 am45 °FPartly cloudy.15 mph100%29.45 "Hg4 mi
2:20 am45 °FLow clouds.15 mph100%29.45 "Hg5 mi
1:50 am45 °FLow clouds.16 mph100%29.45 "Hg4 mi
1:20 am45 °FPartly cloudy.15 mph93%29.45 "HgN/A
12:50 am45 °FPassing clouds.13 mph93%29.45 "HgN/A
12:20 am45 °FPassing clouds.12 mph93%29.47 "HgN/A
11:50 pm
Sun, Feb 26
45 °FPassing clouds.12 mph93%29.47 "HgN/A
11:20 pm45 °FPassing clouds.10 mph93%29.47 "HgN/A
10:50 pm45 °FPassing clouds.10 mph93%29.50 "Hg5 mi
10:20 pm45 °FPartly cloudy.12 mph93%29.50 "Hg4 mi
9:50 pm45 °FFog.12 mph93%29.50 "Hg2 mi
9:37 pm45 °FFog.9 mph93%29.50 "Hg2 mi
8:50 pm45 °FPassing clouds.9 mph93%29.53 "Hg6 mi
8:02 pm45 °FPartly cloudy.8 mph93%29.53 "Hg4 mi
7:27 pm43 °FFog.7 mph100%29.53 "Hg2 mi
6:50 pm43 °FPassing clouds.10 mph100%29.53 "Hg4 mi
6:07 pm45 °FDrizzle. Fog.10 mph93%29.53 "Hg0 mi
5:20 pm45 °FDrizzle. Fog.10 mph93%29.53 "Hg1 mi
4:50 pm45 °FLow clouds.8 mph93%29.50 "HgN/A
4:20 pm45 °FBroken clouds.9 mph93%29.50 "HgN/A
3:50 pm45 °FDrizzle. Broken clouds.9 mph93%29.50 "HgN/A
3:20 pm46 °FBroken clouds.8 mph93%29.50 "HgN/A
2:50 pm46 °FBroken clouds.7 mph93%29.50 "HgN/A
2:20 pm46 °FPartly sunny.7 mph93%29.50 "HgN/A
Weather by CustomWeather, © 2017

See weather overviewHow to use our weather pages